Time,TemperatureF,DewpointF,PressureIn,WindDirection,WindDirectionDegrees,WindSpeedMPH,WindSpeedGustMPH,Humidity,HourlyPrecipIn,Conditions,Clouds,dailyrainin,SoftwareType,DateUTC
2013-06-13 00:00:00,59.9,54.1,29.78,WSW,247,0.0,0.0,81,0.00,,CLR,0.00,VWS V14.01,2013-06-13 04:00:00,
2013-06-13 00:01:00,59.9,54.1,29.78,WSW,247,0.0,0.0,81,0.00,,CLR,0.00,VWS V14.01,2013-06-13 04:01:00,
2013-06-13 00:06:00,59.8,54.3,29.78,WSW,247,0.0,0.0,82,0.00,,CLR,0.00,VWS V14.01,2013-06-13 04:06:00,
2013-06-13 00:14:00,59.5,54.0,29.78,WSW,247,0.0,0.0,82,0.00,,CLR,0.00,VWS V14.01,2013-06-13 04:14:00,
2013-06-13 00:19:00,59.3,53.5,29.78,WSW,247,0.0,0.0,81,0.00,,CLR,0.00,VWS V14.01,2013-06-13 04:19:00,
2013-06-13 00:24:00,59.2,53.7,29.78,WSW,248,0.0,0.0,82,0.00,,CLR,0.00,VWS V14.01,2013-06-13 04:24:00,
2013-06-13 00:29:00,59.1,53.3,29.78,WSW,247,0.0,0.0,81,0.00,,CLR,0.00,VWS V14.01,2013-06-13 04:29:00,
2013-06-13 00:34:00,58.9,53.4,29.78,WSW,248,0.0,0.0,82,0.00,,CLR,0.00,VWS V14.01,2013-06-13 04:34:00,
2013-06-13 00:39:00,58.8,53.3,29.78,WSW,247,0.0,0.0,82,0.00,,CLR,0.00,VWS V14.01,2013-06-13 04:39:00,
2013-06-13 00:44:00,58.7,53.6,29.77,WSW,247,0.0,0.0,83,0.00,,CLR,0.00,VWS V14.01,2013-06-13 04:44:00,
2013-06-13 00:49:00,58.7,53.6,29.77,WSW,248,0.0,0.0,83,0.00,,CLR,0.00,VWS V14.01,2013-06-13 04:49:00,
2013-06-13 00:54:00,58.6,53.5,29.77,WSW,247,0.0,0.0,83,0.00,,CLR,0.00,VWS V14.01,2013-06-13 04:54:00,
2013-06-13 00:59:00,58.5,53.4,29.78,WSW,247,0.0,0.0,83,0.00,,CLR,0.00,VWS V14.01,2013-06-13 04:59:00,
2013-06-13 01:01:00,58.5,53.4,29.78,WSW,247,0.0,0.0,83,0.00,,CLR,0.00,VWS V14.01,2013-06-13 05:01:00,
2013-06-13 01:09:00,58.4,53.6,29.78,WSW,247,0.0,1.0,84,0.00,,CLR,0.00,VWS V14.01,2013-06-13 05:09:00,
2013-06-13 01:14:00,58.4,53.6,29.78,WSW,247,0.0,1.0,84,0.00,,CLR,0.00,VWS V14.01,2013-06-13 05:14:00,
2013-06-13 01:19:00,58.3,53.5,29.78,WSW,247,0.0,1.0,84,0.00,,CLR,0.00,VWS V14.01,2013-06-13 05:19:00,
2013-06-13 01:24:00,58.2,53.7,29.78,WSW,248,0.0,1.0,85,0.00,,CLR,0.00,VWS V14.01,2013-06-13 05:24:00,
2013-06-13 01:29:00,58.2,53.7,29.79,WSW,247,0.0,1.0,85,0.00,,CLR,0.00,VWS V14.01,2013-06-13 05:29:00,
2013-06-13 01:34:00,58.1,53.6,29.78,WSW,247,0.0,0.0,85,0.00,,CLR,0.00,VWS V14.01,2013-06-13 05:34:00,
2013-06-13 01:39:00,58.0,53.5,29.78,WSW,247,1.0,1.0,85,0.00,,CLR,0.00,VWS V14.01,2013-06-13 05:39:00,
2013-06-13 01:44:00,58.0,53.5,29.78,WSW,247,0.0,1.0,85,0.00,,CLR,0.00,VWS V14.01,2013-06-13 05:44:00,
2013-06-13 01:49:00,57.9,53.4,29.78,WSW,247,0.0,1.0,85,0.00,,CLR,0.00,VWS V14.01,2013-06-13 05:49:00,
2013-06-13 01:54:00,57.9,53.4,29.78,WSW,247,1.0,1.0,85,0.00,,CLR,0.00,VWS V14.01,2013-06-13 05:54:00,
2013-06-13 01:59:00,57.8,53.3,29.78,WSW,248,0.0,2.0,85,0.00,,CLR,0.00,VWS V14.01,2013-06-13 05:59:00,
2013-06-13 02:04:00,57.8,53.7,29.78,WSW,248,0.0,0.0,86,0.00,,CLR,0.00,VWS V14.01,2013-06-13 06:04:00,
2013-06-13 02:09:00,57.8,53.7,29.78,WSW,248,0.0,0.0,86,0.00,,CLR,0.00,VWS V14.01,2013-06-13 06:09:00,
2013-06-13 02:14:00,57.8,53.7,29.77,WSW,248,0.0,0.0,86,0.00,,CLR,0.00,VWS V14.01,2013-06-13 06:14:00,
2013-06-13 02:19:00,57.8,53.7,29.77,WSW,248,0.0,0.0,86,0.00,,CLR,0.00,VWS V14.01,2013-06-13 06:19:00,
2013-06-13 02:24:00,57.7,53.5,29.77,WSW,248,0.0,0.0,86,0.00,,CLR,0.00,VWS V14.01,2013-06-13 06:24:00,
2013-06-13 02:29:00,57.7,53.5,29.77,WSW,248,0.0,0.0,86,0.00,,CLR,0.00,VWS V14.01,2013-06-13 06:29:00,
2013-06-13 02:34:00,57.6,53.5,29.77,WSW,248,0.0,0.0,86,0.00,,CLR,0.00,VWS V14.01,2013-06-13 06:34:00,
2013-06-13 02:39:00,57.6,53.5,29.77,WSW,248,0.0,0.0,86,0.00,,CLR,0.00,VWS V14.01,2013-06-13 06:39:00,
2013-06-13 02:44:00,57.5,53.3,29.77,WSW,248,0.0,1.0,86,0.00,,CLR,0.00,VWS V14.01,2013-06-13 06:44:00,
2013-06-13 02:49:00,57.4,53.2,29.77,WSW,248,0.0,1.0,86,0.00,,CLR,0.00,VWS V14.01,2013-06-13 06:49:00,
2013-06-13 02:54:00,57.4,53.2,29.77,WSW,248,0.0,1.0,86,0.00,,CLR,0.00,VWS V14.01,2013-06-13 06:54:00,
2013-06-13 02:59:00,57.3,53.2,29.77,WSW,248,0.0,1.0,86,0.00,,CLR,0.00,VWS V14.01,2013-06-13 06:59:00,
2013-06-13 03:04:00,57.3,53.2,29.77,WSW,248,0.0,1.0,86,0.00,,CLR,0.00,VWS V14.01,2013-06-13 07:04:00,
2013-06-13 03:09:00,57.2,53.4,29.77,WSW,248,0.0,1.0,87,0.00,,CLR,0.00,VWS V14.01,2013-06-13 07:09:00,
2013-06-13 03:14:00,57.2,53.4,29.77,WSW,248,0.0,1.0,87,0.00,,CLR,0.00,VWS V14.01,2013-06-13 07:14:00,
2013-06-13 03:19:00,57.1,53.3,29.77,WSW,248,0.0,1.0,87,0.00,,CLR,0.00,VWS V14.01,2013-06-13 07:19:00,
2013-06-13 03:24:00,57.1,53.6,29.76,WSW,248,0.0,1.0,88,0.00,,CLR,0.00,VWS V14.01,2013-06-13 07:24:00,
2013-06-13 03:29:00,57.0,53.5,29.76,WSW,248,0.0,1.0,88,0.00,,CLR,0.00,VWS V14.01,2013-06-13 07:29:00,
2013-06-13 03:34:00,56.9,53.1,29.77,WSW,248,0.0,0.0,87,0.00,,CLR,0.00,VWS V14.01,2013-06-13 07:34:00,
2013-06-13 03:39:00,56.9,53.4,29.77,WSW,248,0.0,1.0,88,0.00,,CLR,0.00,VWS V14.01,2013-06-13 07:39:00,
2013-06-13 03:44:00,56.8,53.3,29.77,WSW,248,0.0,1.0,88,0.00,,CLR,0.00,VWS V14.01,2013-06-13 07:44:00,
2013-06-13 03:49:00,56.8,53.3,29.77,WSW,248,0.0,1.0,88,0.00,,CLR,0.00,VWS V14.01,2013-06-13 07:49:00,
2013-06-13 03:54:00,56.7,53.2,29.78,WSW,248,0.0,1.0,88,0.00,,CLR,0.00,VWS V14.01,2013-06-13 07:54:00,
2013-06-13 03:59:00,56.7,53.2,29.77,WSW,248,0.0,1.0,88,0.00,,CLR,0.00,VWS V14.01,2013-06-13 07:59:00,
2013-06-13 04:04:00,56.7,53.2,29.77,WSW,248,0.0,0.0,88,0.00,,CLR,0.00,VWS V14.01,2013-06-13 08:04:00,
2013-06-13 04:09:00,56.6,53.1,29.77,WSW,248,0.0,0.0,88,0.00,,CLR,0.00,VWS V14.01,2013-06-13 08:09:00,
2013-06-13 04:14:00,56.5,53.0,29.77,WSW,248,0.0,0.0,88,0.00,,CLR,0.00,VWS V14.01,2013-06-13 08:14:00,
2013-06-13 04:19:00,56.4,52.9,29.77,WSW,248,0.0,0.0,88,0.00,,CLR,0.00,VWS V14.01,2013-06-13 08:19:00,
2013-06-13 04:24:00,56.4,52.9,29.78,WSW,248,0.0,0.0,88,0.00,,CLR,0.00,VWS V14.01,2013-06-13 08:24:00,
2013-06-13 04:30:00,56.3,52.8,29.78,WSW,248,0.0,0.0,88,0.00,,CLR,0.00,VWS V14.01,2013-06-13 08:30:00,
2013-06-13 04:35:00,56.2,52.7,29.77,WSW,248,0.0,0.0,88,0.00,,CLR,0.00,VWS V14.01,2013-06-13 08:35:00,
2013-06-13 04:40:00,56.1,52.9,29.78,WSW,248,0.0,0.0,89,0.00,,CLR,0.00,VWS V14.01,2013-06-13 08:40:00,
2013-06-13 04:45:00,56.0,52.8,29.78,WSW,248,0.0,0.0,89,0.00,,CLR,0.00,VWS V14.01,2013-06-13 08:45:00,
2013-06-13 04:50:00,55.9,52.4,29.77,WSW,248,0.0,0.0,88,0.00,,CLR,0.00,VWS V14.01,2013-06-13 08:50:00,
2013-06-13 04:55:00,55.8,52.6,29.78,WSW,248,0.0,0.0,89,0.00,,CLR,0.00,VWS V14.01,2013-06-13 08:55:00,
2013-06-13 05:00:00,55.7,52.5,29.78,WSW,248,0.0,0.0,89,0.00,,CLR,0.00,VWS V14.01,2013-06-13 09:00:00,
2013-06-13 05:05:00,55.7,52.5,29.78,WSW,248,0.0,0.0,89,0.00,,CLR,0.00,VWS V14.01,2013-06-13 09:05:00,
2013-06-13 05:10:00,55.6,52.4,29.78,WSW,248,0.0,1.0,89,0.00,,CLR,0.00,VWS V14.01,2013-06-13 09:10:00,
2013-06-13 05:15:00,55.4,52.2,29.79,WSW,248,0.0,1.0,89,0.00,,CLR,0.00,VWS V14.01,2013-06-13 09:15:00,
2013-06-13 05:20:00,55.4,52.2,29.79,WSW,248,0.0,1.0,89,0.00,,CLR,0.00,VWS V14.01,2013-06-13 09:20:00,
2013-06-13 05:25:00,55.3,52.4,29.78,WSW,248,0.0,1.0,90,0.00,,CLR,0.00,VWS V14.01,2013-06-13 09:25:00,
2013-06-13 05:30:00,55.2,52.3,29.78,WSW,248,0.0,1.0,90,0.00,,CLR,0.00,VWS V14.01,2013-06-13 09:30:00,
2013-06-13 05:35:00,55.1,52.2,29.78,WSW,248,0.0,0.0,90,0.00,,CLR,0.00,VWS V14.01,2013-06-13 09:35:00,
2013-06-13 05:40:00,55.1,52.2,29.78,WSW,248,0.0,0.0,90,0.00,,CLR,0.00,VWS V14.01,2013-06-13 09:40:00,
2013-06-13 05:45:00,55.1,52.5,29.78,WSW,248,0.0,0.0,91,0.00,,CLR,0.00,VWS V14.01,2013-06-13 09:45:00,
2013-06-13 05:50:00,55.1,52.5,29.78,WSW,248,0.0,0.0,91,0.00,,CLR,0.00,VWS V14.01,2013-06-13 09:50:00,
2013-06-13 05:55:00,55.0,52.4,29.77,WSW,248,0.0,0.0,91,0.00,,CLR,0.00,VWS V14.01,2013-06-13 09:55:00,
2013-06-13 06:00:00,55.1,52.5,29.77,WSW,248,0.0,0.0,91,0.00,,CLR,0.00,VWS V14.01,2013-06-13 10:00:00,
2013-06-13 06:05:00,55.2,52.6,29.77,WSW,248,0.0,0.0,91,0.00,,SCT110,0.00,VWS V14.01,2013-06-13 10:05:00,
2013-06-13 06:10:00,55.2,52.9,29.78,WSW,248,0.0,0.0,92,0.00,,SCT110,0.00,VWS V14.01,2013-06-13 10:10:00,
2013-06-13 06:15:00,55.3,53.0,29.77,WSW,248,0.0,0.0,92,0.00,,SCT110,0.00,VWS V14.01,2013-06-13 10:15:00,
2013-06-13 06:20:00,55.5,53.2,29.77,WSW,248,0.0,0.0,92,0.00,,SCT110,0.00,VWS V14.01,2013-06-13 10:20:00,
2013-06-13 06:25:00,55.5,53.5,29.78,WSW,248,0.0,0.0,93,0.00,,SCT110,0.00,VWS V14.01,2013-06-13 10:25:00,
2013-06-13 06:30:00,55.7,53.7,29.77,WSW,248,0.0,0.0,93,0.00,,SCT110,0.00,VWS V14.01,2013-06-13 10:30:00,
2013-06-13 06:35:00,55.9,53.9,29.77,WSW,248,0.0,0.0,93,0.00,,SCT110,0.00,VWS V14.01,2013-06-13 10:35:00,
2013-06-13 06:40:00,56.0,54.0,29.77,WSW,248,0.0,0.0,93,0.00,,SCT110,0.00,VWS V14.01,2013-06-13 10:40:00,
2013-06-13 06:45:00,56.1,54.4,29.77,WSW,248,0.0,0.0,94,0.00,,SCT110,0.00,VWS V14.01,2013-06-13 10:45:00,
2013-06-13 06:50:00,56.3,54.6,29.77,WSW,248,0.0,0.0,94,0.00,,SCT110,0.00,VWS V14.01,2013-06-13 10:50:00,
2013-06-13 06:55:00,56.4,54.7,29.77,WSW,248,0.0,0.0,94,0.00,,SCT110,0.00,VWS V14.01,2013-06-13 10:55:00,
2013-06-13 07:00:00,56.5,54.8,29.77,WSW,248,0.0,0.0,94,0.00,,SCT110,0.00,VWS V14.01,2013-06-13 11:00:00,
2013-06-13 07:05:00,56.6,54.9,29.77,WSW,248,0.0,0.0,94,0.00,,OVC110,0.00,VWS V14.01,2013-06-13 11:05:00,
2013-06-13 07:10:00,56.7,55.0,29.78,WSW,248,0.0,0.0,94,0.00,,OVC110,0.00,VWS V14.01,2013-06-13 11:10:00,
2013-06-13 07:15:00,56.8,55.1,29.77,WSW,248,0.0,0.0,94,0.00,,OVC110,0.00,VWS V14.01,2013-06-13 11:15:00,
2013-06-13 07:20:00,57.0,55.3,29.77,WSW,248,0.0,0.0,94,0.00,,OVC110,0.00,VWS V14.01,2013-06-13 11:20:00,
2013-06-13 07:25:00,57.1,55.4,29.77,WSW,248,0.0,0.0,94,0.00,,OVC110,0.00,VWS V14.01,2013-06-13 11:25:00,
2013-06-13 07:30:00,57.3,55.6,29.77,WSW,248,0.0,0.0,94,0.00,,OVC110,0.00,VWS V14.01,2013-06-13 11:30:00,
2013-06-13 07:35:00,57.5,55.8,29.77,WSW,248,0.0,0.0,94,0.00,,OVC110,0.00,VWS V14.01,2013-06-13 11:35:00,
2013-06-13 07:40:00,57.7,56.0,29.77,WSW,248,0.0,0.0,94,0.00,,OVC110,0.00,VWS V14.01,2013-06-13 11:40:00,
2013-06-13 07:45:00,57.9,56.2,29.77,WSW,248,0.0,0.0,94,0.00,,OVC110,0.00,VWS V14.01,2013-06-13 11:45:00,
2013-06-13 07:50:00,58.1,56.4,29.77,WSW,248,0.0,0.0,94,0.00,,OVC110,0.00,VWS V14.01,2013-06-13 11:50:00,
2013-06-13 07:55:00,58.2,56.5,29.77,WSW,248,0.0,0.0,94,0.00,,OVC110,0.00,VWS V14.01,2013-06-13 11:55:00,
2013-06-13 08:00:00,58.3,56.3,29.76,WSW,248,0.0,0.0,93,0.00,,OVC110,0.00,VWS V14.01,2013-06-13 12:00:00,
2013-06-13 08:05:00,58.4,56.4,29.76,WSW,248,0.0,0.0,93,0.00,,OVC100,0.00,VWS V14.01,2013-06-13 12:05:00,
2013-06-13 08:10:00,58.6,56.6,29.76,WSW,248,0.0,0.0,93,0.00,,OVC100,0.00,VWS V14.01,2013-06-13 12:10:00,
2013-06-13 08:15:00,58.6,56.6,29.76,WSW,248,0.0,0.0,93,0.00,,OVC100,0.00,VWS V14.01,2013-06-13 12:15:00,
2013-06-13 08:20:00,58.7,56.7,29.76,WSW,248,0.0,0.0,93,0.00,,OVC100,0.00,VWS V14.01,2013-06-13 12:20:00,
2013-06-13 08:25:00,58.8,56.5,29.76,WSW,248,0.0,0.0,92,0.00,,OVC100,0.00,VWS V14.01,2013-06-13 12:25:00,
2013-06-13 08:30:00,58.9,56.6,29.75,WSW,248,0.0,0.0,92,0.00,,OVC100,0.00,VWS V14.01,2013-06-13 12:30:00,
2013-06-13 08:35:00,59.0,56.7,29.75,WSW,248,0.0,0.0,92,0.00,,OVC100,0.00,VWS V14.01,2013-06-13 12:35:00,
2013-06-13 08:40:00,59.1,56.8,29.75,WSW,248,0.0,0.0,92,0.00,,OVC100,0.00,VWS V14.01,2013-06-13 12:40:00,
2013-06-13 08:45:00,59.2,56.9,29.75,WSW,248,0.0,0.0,92,0.00,,OVC100,0.00,VWS V14.01,2013-06-13 12:45:00,
2013-06-13 08:50:00,59.3,57.0,29.76,WSW,248,0.0,1.0,92,0.00,,OVC100,0.00,VWS V14.01,2013-06-13 12:50:00,
2013-06-13 08:55:00,59.4,57.1,29.75,WSW,248,0.0,1.0,92,0.00,,OVC100,0.00,VWS V14.01,2013-06-13 12:55:00,
2013-06-13 09:00:00,59.5,57.2,29.76,WSW,248,0.0,1.0,92,0.00,,OVC100,0.00,VWS V14.01,2013-06-13 13:00:00,
2013-06-13 09:05:00,59.6,57.0,29.76,WSW,248,0.0,0.0,91,0.00,,OVC100,0.00,VWS V14.01,2013-06-13 13:05:00,
2013-06-13 09:10:00,59.7,57.1,29.77,WSW,248,0.0,0.0,91,0.00,,OVC100,0.00,VWS V14.01,2013-06-13 13:10:00,
2013-06-13 09:15:00,59.8,57.2,29.76,WSW,248,0.0,0.0,91,0.00,,OVC100,0.00,VWS V14.01,2013-06-13 13:15:00,
2013-06-13 09:20:00,59.9,57.3,29.76,SW,218,0.0,1.0,91,0.00,,OVC100,0.00,VWS V14.01,2013-06-13 13:20:00,
2013-06-13 09:25:00,60.0,57.4,29.75,SW,218,0.0,1.0,91,0.00,,OVC100,0.00,VWS V14.01,2013-06-13 13:25:00,
2013-06-13 09:30:00,60.2,57.6,29.75,SW,218,0.0,1.0,91,0.00,,OVC100,0.00,VWS V14.01,2013-06-13 13:30:00,
2013-06-13 09:35:00,60.3,57.7,29.74,SW,218,1.0,3.0,91,0.00,,OVC100,0.00,VWS V14.01,2013-06-13 13:35:00,
2013-06-13 09:40:00,60.5,57.9,29.75,SW,218,0.0,3.0,91,0.00,,OVC100,0.00,VWS V14.01,2013-06-13 13:40:00,
2013-06-13 09:45:00,60.6,58.0,29.75,SW,218,0.0,3.0,91,0.00,,OVC100,0.00,VWS V14.01,2013-06-13 13:45:00,
2013-06-13 09:50:00,60.7,57.8,29.74,SW,218,0.0,3.0,90,0.00,,OVC100,0.00,VWS V14.01,2013-06-13 13:50:00,
2013-06-13 09:55:00,60.9,58.0,29.74,SW,218,0.0,3.0,90,0.00,,OVC100,0.00,VWS V14.01,2013-06-13 13:55:00,
2013-06-13 10:00:00,61.0,57.7,29.74,SSW,213,0.0,3.0,89,0.00,,OVC100,0.00,VWS V14.01,2013-06-13 14:00:00,
2013-06-13 10:05:00,61.1,57.8,29.73,SSW,213,0.0,1.0,89,0.00,,OVC110,0.00,VWS V14.01,2013-06-13 14:05:00,
2013-06-13 10:10:00,61.2,57.9,29.74,SSW,213,0.0,1.0,89,0.00,,OVC110,0.00,VWS V14.01,2013-06-13 14:10:00,
2013-06-13 10:15:00,61.3,57.7,29.75,SSW,213,1.0,1.0,88,0.00,,OVC110,0.00,VWS V14.01,2013-06-13 14:15:00,
2013-06-13 10:20:00,61.4,57.8,29.75,SSW,213,0.0,1.0,88,0.00,,OVC110,0.00,VWS V14.01,2013-06-13 14:20:00,
2013-06-13 10:25:00,61.5,57.9,29.75,SSW,213,0.0,1.0,88,0.00,,OVC110,0.00,VWS V14.01,2013-06-13 14:25:00,
2013-06-13 10:30:00,61.6,58.0,29.74,SSW,213,0.0,1.0,88,0.00,,OVC110,0.00,VWS V14.01,2013-06-13 14:30:00,
2013-06-13 10:35:00,61.6,57.7,29.73,SSW,213,0.0,1.0,87,0.00,,OVC110,0.00,VWS V14.01,2013-06-13 14:35:00,
2013-06-13 10:40:00,61.6,57.7,29.73,SSW,213,0.0,1.0,87,0.00,,OVC110,0.00,VWS V14.01,2013-06-13 14:40:00,
2013-06-13 10:45:00,61.6,57.7,29.73,SSW,213,0.0,1.0,87,0.00,,OVC110,0.00,VWS V14.01,2013-06-13 14:45:00,
2013-06-13 10:50:00,61.5,57.6,29.72,SSW,213,0.0,1.0,87,0.00,,OVC110,0.00,VWS V14.01,2013-06-13 14:50:00,
2013-06-13 10:55:00,61.4,57.5,29.73,SSW,213,0.0,1.0,87,0.00,,OVC110,0.00,VWS V14.01,2013-06-13 14:55:00,
2013-06-13 11:00:00,61.4,57.5,29.73,SSW,213,0.0,1.0,87,0.00,,OVC110,0.00,VWS V14.01,2013-06-13 15:00:00,
2013-06-13 11:05:00,61.3,57.4,29.72,SSW,213,0.0,1.0,87,0.00,,OVC075,0.00,VWS V14.01,2013-06-13 15:05:00,
2013-06-13 11:10:00,61.3,57.4,29.73,SSE,163,0.0,3.0,87,0.01,,OVC075,0.01,VWS V14.01,2013-06-13 15:10:00,
2013-06-13 11:15:00,61.2,57.9,29.73,SSE,163,0.0,3.0,89,0.01,,OVC075,0.01,VWS V14.01,2013-06-13 15:15:00,
2013-06-13 11:20:00,61.3,57.7,29.74,SSE,163,0.0,3.0,88,0.01,,OVC075,0.01,VWS V14.01,2013-06-13 15:20:00,
2013-06-13 11:25:00,61.3,57.7,29.76,SSE,163,0.0,3.0,88,0.01,,OVC075,0.01,VWS V14.01,2013-06-13 15:25:00,
2013-06-13 11:30:00,61.3,57.7,29.76,SSE,163,1.0,3.0,88,0.06,,OVC075,0.06,VWS V14.01,2013-06-13 15:30:00,
2013-06-13 11:35:00,61.2,58.2,29.73,SSE,163,1.0,2.0,90,0.10,,OVC075,0.10,VWS V14.01,2013-06-13 15:35:00,
2013-06-13 11:40:00,61.2,58.2,29.72,SE,141,0.0,3.0,90,0.11,,OVC075,0.11,VWS V14.01,2013-06-13 15:40:00,
2013-06-13 11:45:00,61.2,58.2,29.75,SE,141,0.0,3.0,90,0.12,,OVC075,0.12,VWS V14.01,2013-06-13 15:45:00,
2013-06-13 11:50:00,61.1,58.5,29.74,SE,141,0.0,3.0,91,0.13,,OVC075,0.13,VWS V14.01,2013-06-13 15:50:00,
2013-06-13 11:55:00,61.0,58.4,29.74,SE,141,0.0,3.0,91,0.13,,OVC075,0.13,VWS V14.01,2013-06-13 15:55:00,
2013-06-13 12:00:00,60.9,58.6,29.73,SE,141,0.0,3.0,92,0.13,,OVC075,0.13,VWS V14.01,2013-06-13 16:00:00,
2013-06-13 12:05:00,60.9,58.6,29.74,SE,141,0.0,1.0,92,0.14,,-RA,0.14,VWS V14.01,2013-06-13 16:05:00,
2013-06-13 12:10:00,60.8,58.5,29.75,SE,141,0.0,1.0,92,0.15,,-RA,0.15,VWS V14.01,2013-06-13 16:10:00,
2013-06-13 12:15:00,60.8,58.5,29.71,SE,141,0.0,2.0,92,0.15,,-RA,0.15,VWS V14.01,2013-06-13 16:15:00,
2013-06-13 12:20:00,60.7,58.4,29.71,SE,141,1.0,2.0,92,0.17,,-RA,0.17,VWS V14.01,2013-06-13 16:20:00,
2013-06-13 12:25:00,60.6,58.6,29.70,ESE,114,0.0,3.0,93,0.17,,-RA,0.17,VWS V14.01,2013-06-13 16:25:00,
2013-06-13 12:30:00,60.6,58.6,29.70,SSE,153,0.0,3.0,93,0.17,,-RA,0.17,VWS V14.01,2013-06-13 16:30:00,
2013-06-13 12:35:00,60.5,58.5,29.70,SE,136,2.0,5.0,93,0.11,,-RA,0.18,VWS V14.01,2013-06-13 16:35:00,
2013-06-13 12:40:00,60.4,58.4,29.70,ESE,122,0.0,5.0,93,0.11,,-RA,0.18,VWS V14.01,2013-06-13 16:40:00,
2013-06-13 12:45:00,60.2,58.2,29.70,ESE,122,0.0,5.0,93,0.12,,-RA,0.19,VWS V14.01,2013-06-13 16:45:00,
2013-06-13 12:50:00,60.1,58.1,29.71,ESE,119,2.0,5.0,93,0.12,,-RA,0.19,VWS V14.01,2013-06-13 16:50:00,
2013-06-13 12:55:00,59.9,57.9,29.68,ESE,122,1.0,5.0,93,0.12,,-RA,0.19,VWS V14.01,2013-06-13 16:55:00,
2013-06-13 13:00:00,59.9,57.9,29.68,SSW,209,1.0,5.0,93,0.12,,-RA,0.19,VWS V14.01,2013-06-13 17:00:00,
2013-06-13 13:05:00,59.8,57.8,29.67,South,178,1.0,3.0,93,0.07,,-RA,0.20,VWS V14.01,2013-06-13 17:05:00,
2013-06-13 13:10:00,59.7,57.7,29.66,NW,312,0.0,3.0,93,0.07,,-RA,0.20,VWS V14.01,2013-06-13 17:10:00,
2013-06-13 13:15:00,59.6,57.6,29.67,NW,304,1.0,3.0,93,0.07,,-RA,0.20,VWS V14.01,2013-06-13 17:15:00,
2013-06-13 13:20:00,59.5,57.5,29.74,WSW,239,2.0,6.0,93,0.07,,-RA,0.20,VWS V14.01,2013-06-13 17:20:00,
2013-06-13 13:25:00,59.5,57.5,29.68,ENE,75,1.0,6.0,93,0.07,,-RA,0.20,VWS V14.01,2013-06-13 17:25:00,
2013-06-13 13:30:00,59.5,57.8,29.67,WNW,298,3.0,6.0,94,0.14,,-RA,0.27,VWS V14.01,2013-06-13 17:30:00,
2013-06-13 13:35:00,59.4,57.7,29.68,NNW,336,0.0,4.0,94,0.11,,-RA,0.28,VWS V14.01,2013-06-13 17:35:00,
2013-06-13 13:41:00,59.4,57.7,29.67,SE,135,3.0,4.0,94,0.11,,-RA,0.28,VWS V14.01,2013-06-13 17:41:00,
2013-06-13 13:46:00,59.4,57.7,29.66,ESE,123,0.0,4.0,94,0.11,,-RA,0.28,VWS V14.01,2013-06-13 17:46:00,
2013-06-13 13:51:00,59.4,57.7,29.66,SW,223,0.0,4.0,94,0.11,,-RA,0.28,VWS V14.01,2013-06-13 17:51:00,
2013-06-13 13:56:00,59.4,57.7,29.66,ENE,72,1.0,4.0,94,0.11,,-RA,0.28,VWS V14.01,2013-06-13 17:56:00,
2013-06-13 14:01:00,59.4,57.7,29.67,SE,127,0.0,4.0,94,0.11,,OVC055,0.28,VWS V14.01,2013-06-13 18:01:00,
2013-06-13 14:06:00,59.4,57.7,29.68,South,184,0.0,2.0,94,0.09,,OVC055,0.28,VWS V14.01,2013-06-13 18:06:00,
2013-06-13 14:11:00,59.3,57.6,29.68,South,184,0.0,2.0,94,0.09,,OVC055,0.28,VWS V14.01,2013-06-13 18:11:00,
2013-06-13 14:16:00,59.4,58.0,29.68,SE,128,0.0,3.0,95,0.09,,OVC055,0.28,VWS V14.01,2013-06-13 18:16:00,
2013-06-13 14:21:00,59.4,58.0,29.67,SE,128,1.0,3.0,95,0.09,,OVC055,0.28,VWS V14.01,2013-06-13 18:21:00,
2013-06-13 14:26:00,59.4,58.0,29.66,SE,133,0.0,3.0,95,0.09,,OVC055,0.28,VWS V14.01,2013-06-13 18:26:00,
2013-06-13 14:31:00,59.5,58.1,29.66,SSE,161,1.0,3.0,95,0.09,,OVC055,0.28,VWS V14.01,2013-06-13 18:31:00,
2013-06-13 14:36:00,59.5,58.1,29.66,SSW,193,1.0,3.0,95,0.00,,OVC055,0.28,VWS V14.01,2013-06-13 18:36:00,
2013-06-13 14:41:00,59.5,58.1,29.65,SSE,166,0.0,3.0,95,0.00,,OVC055,0.28,VWS V14.01,2013-06-13 18:41:00,
2013-06-13 14:46:00,59.5,58.1,29.66,SW,221,1.0,4.0,95,0.00,,OVC055,0.28,VWS V14.01,2013-06-13 18:46:00,
2013-06-13 14:51:00,59.5,58.1,29.65,SE,138,1.0,4.0,95,0.00,,OVC055,0.28,VWS V14.01,2013-06-13 18:51:00,
2013-06-13 14:56:00,59.5,57.8,29.65,SE,145,0.0,6.0,94,0.00,,OVC055,0.28,VWS V14.01,2013-06-13 18:56:00,
2013-06-13 15:01:00,59.4,57.7,29.65,ESE,103,1.0,6.0,94,0.00,,OVC050,0.28,VWS V14.01,2013-06-13 19:01:00,
2013-06-13 15:06:00,59.4,57.7,29.65,SSE,156,2.0,3.0,94,0.00,,OVC050,0.28,VWS V14.01,2013-06-13 19:06:00,
2013-06-13 15:11:00,59.4,57.7,29.64,SE,136,4.0,4.0,94,0.00,,OVC050,0.28,VWS V14.01,2013-06-13 19:11:00,
2013-06-13 15:16:00,59.3,57.6,29.65,NNW,344,0.0,4.0,94,0.00,,OVC050,0.28,VWS V14.01,2013-06-13 19:16:00,
2013-06-13 15:21:00,59.3,57.6,29.65,SSW,200,2.0,4.0,94,0.00,,OVC050,0.28,VWS V14.01,2013-06-13 19:21:00,
2013-06-13 15:26:00,59.3,57.6,29.65,SSE,154,0.0,6.0,94,0.00,,OVC050,0.28,VWS V14.01,2013-06-13 19:26:00,
2013-06-13 15:31:00,59.3,57.6,29.65,ESE,119,1.0,6.0,94,0.00,,OVC050,0.28,VWS V14.01,2013-06-13 19:31:00,
2013-06-13 15:36:00,59.2,57.5,29.66,SE,135,0.0,3.0,94,0.00,,OVC050,0.28,VWS V14.01,2013-06-13 19:36:00,
2013-06-13 15:41:00,59.1,57.1,29.65,SSE,155,2.0,3.0,93,0.00,,OVC050,0.28,VWS V14.01,2013-06-13 19:41:00,
2013-06-13 15:46:00,59.0,57.0,29.64,ESE,113,2.0,3.0,93,0.00,,OVC050,0.28,VWS V14.01,2013-06-13 19:46:00,
2013-06-13 15:51:00,59.1,57.1,29.64,SSW,211,1.0,3.0,93,0.01,,OVC050,0.29,VWS V14.01,2013-06-13 19:51:00,
2013-06-13 15:56:00,59.0,57.0,29.64,SSE,151,1.0,4.0,93,0.02,,OVC050,0.30,VWS V14.01,2013-06-13 19:56:00,
2013-06-13 16:01:00,59.0,57.0,29.64,SSW,196,1.0,4.0,93,0.03,,-RA,0.31,VWS V14.01,2013-06-13 20:01:00,
2013-06-13 16:06:00,59.0,57.0,29.64,ESE,115,0.0,3.0,93,0.04,,-RA,0.32,VWS V14.01,2013-06-13 20:06:00,
2013-06-13 16:11:00,59.0,57.3,29.63,SE,130,2.0,6.0,94,0.04,,-RA,0.32,VWS V14.01,2013-06-13 20:11:00,
2013-06-13 16:16:00,59.0,57.3,29.62,NNE,23,0.0,6.0,94,0.04,,-RA,0.32,VWS V14.01,2013-06-13 20:16:00,
2013-06-13 16:21:00,59.1,57.4,29.62,ESE,111,1.0,6.0,94,0.04,,-RA,0.32,VWS V14.01,2013-06-13 20:21:00,
2013-06-13 16:26:00,59.0,57.3,29.62,South,169,0.0,7.0,94,0.04,,-RA,0.32,VWS V14.01,2013-06-13 20:26:00,
2013-06-13 16:31:00,59.0,57.3,29.62,SE,125,0.0,7.0,94,0.04,,-RA,0.32,VWS V14.01,2013-06-13 20:31:00,
2013-06-13 16:36:00,58.9,57.2,29.61,SE,125,0.0,6.0,94,0.04,,-RA,0.32,VWS V14.01,2013-06-13 20:36:00,
2013-06-13 16:41:00,58.9,57.2,29.61,ESE,105,1.0,6.0,94,0.04,,-RA,0.32,VWS V14.01,2013-06-13 20:41:00,
2013-06-13 16:46:00,58.9,57.2,29.61,ESE,112,1.0,9.0,94,0.04,,-RA,0.32,VWS V14.01,2013-06-13 20:46:00,
2013-06-13 16:51:00,58.8,57.1,29.60,East,83,1.0,9.0,94,0.04,,-RA,0.32,VWS V14.01,2013-06-13 20:51:00,
2013-06-13 16:56:00,58.8,57.1,29.60,ESE,110,1.0,9.0,94,0.04,,-RA,0.32,VWS V14.01,2013-06-13 20:56:00,
2013-06-13 17:01:00,58.7,57.0,29.59,SE,141,0.0,9.0,94,0.04,,,0.32,VWS V14.01,2013-06-13 21:01:00,
2013-06-13 17:06:00,58.7,57.0,29.59,South,174,1.0,6.0,94,0.01,,,0.32,VWS V14.01,2013-06-13 21:06:00,
2013-06-13 17:11:00,58.7,57.0,29.59,South,169,2.0,7.0,94,0.01,,,0.32,VWS V14.01,2013-06-13 21:11:00,
2013-06-13 17:16:00,58.7,57.0,29.59,SW,217,2.0,7.0,94,0.01,,,0.32,VWS V14.01,2013-06-13 21:16:00,
2013-06-13 17:21:00,58.7,57.0,29.59,WNW,299,1.0,7.0,94,0.01,,,0.32,VWS V14.01,2013-06-13 21:21:00,
2013-06-13 17:26:00,58.7,57.3,29.59,North,355,2.0,7.0,95,0.01,,,0.32,VWS V14.01,2013-06-13 21:26:00,
2013-06-13 17:31:00,58.6,57.2,29.59,SW,229,4.0,7.0,95,0.01,,,0.32,VWS V14.01,2013-06-13 21:31:00,
2013-06-13 17:36:00,58.6,56.9,29.59,NE,43,3.0,9.0,94,0.00,,,0.32,VWS V14.01,2013-06-13 21:36:00,
2013-06-13 17:41:00,58.5,56.8,29.59,South,175,2.0,9.0,94,0.00,,,0.32,VWS V14.01,2013-06-13 21:41:00,
2013-06-13 17:46:00,58.4,57.0,29.59,NNW,328,2.0,9.0,95,0.00,,,0.32,VWS V14.01,2013-06-13 21:46:00,
2013-06-13 17:51:00,58.4,57.0,29.59,ESE,120,4.0,9.0,95,0.00,,,0.32,VWS V14.01,2013-06-13 21:51:00,
2013-06-13 17:56:00,58.4,56.7,29.58,ESE,118,0.0,9.0,94,0.00,,,0.32,VWS V14.01,2013-06-13 21:56:00,
2013-06-13 18:01:00,58.4,56.7,29.58,ESE,123,1.0,9.0,94,0.00,,OVC038,0.32,VWS V14.01,2013-06-13 22:01:00,
2013-06-13 18:06:00,58.4,56.7,29.58,ENE,61,1.0,4.0,94,0.00,,OVC038,0.32,VWS V14.01,2013-06-13 22:06:00,
2013-06-13 18:11:00,58.3,56.6,29.58,East,94,3.0,7.0,94,0.00,,OVC038,0.32,VWS V14.01,2013-06-13 22:11:00,
2013-06-13 18:16:00,58.3,56.6,29.57,SSE,151,3.0,7.0,94,0.00,,OVC038,0.32,VWS V14.01,2013-06-13 22:16:00,
2013-06-13 18:21:00,58.3,56.6,29.57,East,98,3.0,7.0,94,0.00,,OVC038,0.32,VWS V14.01,2013-06-13 22:21:00,
2013-06-13 18:26:00,58.3,56.6,29.57,SE,125,1.0,7.0,94,0.00,,OVC038,0.32,VWS V14.01,2013-06-13 22:26:00,
2013-06-13 18:31:00,58.3,56.6,29.56,East,85,1.0,9.0,94,0.00,,OVC038,0.32,VWS V14.01,2013-06-13 22:31:00,
2013-06-13 18:36:00,58.3,56.6,29.57,ESE,123,2.0,7.0,94,0.00,,OVC038,0.32,VWS V14.01,2013-06-13 22:36:00,
2013-06-13 18:41:00,58.3,56.6,29.57,ESE,123,0.0,10.0,94,0.00,,OVC038,0.32,VWS V14.01,2013-06-13 22:41:00,
2013-06-13 18:46:00,58.3,56.6,29.57,SE,128,4.0,11.0,94,0.00,,OVC038,0.32,VWS V14.01,2013-06-13 22:46:00,
2013-06-13 18:51:00,58.3,56.3,29.56,SSW,198,7.0,11.0,93,0.00,,OVC038,0.32,VWS V14.01,2013-06-13 22:51:00,
2013-06-13 18:56:00,58.3,56.3,29.56,WSW,238,2.0,11.0,93,0.00,,OVC038,0.32,VWS V14.01,2013-06-13 22:56:00,
2013-06-13 19:01:00,58.3,56.3,29.56,ENE,68,5.0,13.0,93,0.00,,OVC032,0.32,VWS V14.01,2013-06-13 23:01:00,
2013-06-13 19:06:00,58.3,56.3,29.56,NE,55,3.0,9.0,93,0.00,,OVC032,0.32,VWS V14.01,2013-06-13 23:06:00,
2013-06-13 19:11:00,58.3,56.3,29.56,SSE,157,2.0,10.0,93,0.00,,OVC032,0.32,VWS V14.01,2013-06-13 23:11:00,
2013-06-13 19:16:00,58.3,56.3,29.56,ESE,113,7.0,10.0,93,0.00,,OVC032,0.32,VWS V14.01,2013-06-13 23:16:00,
2013-06-13 19:21:00,58.3,56.3,29.56,SE,126,3.0,10.0,93,0.00,,OVC032,0.32,VWS V14.01,2013-06-13 23:21:00,
2013-06-13 19:26:00,58.3,56.0,29.56,ESE,108,1.0,10.0,92,0.00,,OVC032,0.32,VWS V14.01,2013-06-13 23:26:00,
2013-06-13 19:31:00,58.3,56.3,29.56,East,91,4.0,11.0,93,0.00,,OVC032,0.32,VWS V14.01,2013-06-13 23:31:00,
2013-06-13 19:36:00,58.3,56.0,29.56,ENE,65,6.0,10.0,92,0.00,,OVC032,0.32,VWS V14.01,2013-06-13 23:36:00,
2013-06-13 19:41:00,58.3,56.0,29.56,ESE,108,1.0,10.0,92,0.00,,OVC032,0.32,VWS V14.01,2013-06-13 23:41:00,
2013-06-13 19:46:00,58.3,56.0,29.56,SE,136,2.0,10.0,92,0.00,,OVC032,0.32,VWS V14.01,2013-06-13 23:46:00,
2013-06-13 19:51:00,58.3,56.0,29.56,ESE,114,2.0,10.0,92,0.00,,OVC032,0.32,VWS V14.01,2013-06-13 23:51:00,
2013-06-13 19:56:00,58.4,56.1,29.56,NE,55,3.0,10.0,92,0.00,,OVC032,0.32,VWS V14.01,2013-06-13 23:56:00,
2013-06-13 20:01:00,58.4,56.1,29.56,SE,131,0.0,10.0,92,0.00,,OVC030,0.32,VWS V14.01,2013-06-14 00:01:00,
2013-06-13 20:06:00,58.3,56.0,29.57,East,93,0.0,7.0,92,0.01,,OVC030,0.33,VWS V14.01,2013-06-14 00:06:00,
2013-06-13 20:11:00,58.3,56.0,29.56,ENE,63,1.0,10.0,92,0.01,,OVC030,0.33,VWS V14.01,2013-06-14 00:11:00,
2013-06-13 20:16:00,58.2,55.9,29.57,SE,130,1.0,10.0,92,0.01,,OVC030,0.33,VWS V14.01,2013-06-14 00:16:00,
2013-06-13 20:21:00,58.1,55.8,29.57,SE,132,0.0,10.0,92,0.01,,OVC030,0.33,VWS V14.01,2013-06-14 00:21:00,
2013-06-13 20:26:00,58.0,56.0,29.57,SSE,162,0.0,10.0,93,0.02,,OVC030,0.34,VWS V14.01,2013-06-14 00:26:00,
2013-06-13 20:31:00,57.9,55.9,29.56,SSE,155,5.0,10.0,93,0.02,,-RA,0.34,VWS V14.01,2013-06-14 00:31:00,
2013-06-13 20:36:00,57.8,55.8,29.56,ENE,63,1.0,5.0,93,0.03,,-RA,0.35,VWS V14.01,2013-06-14 00:36:00,
2013-06-13 20:41:00,57.7,55.7,29.56,NNW,338,3.0,6.0,93,0.03,,-RA,0.35,VWS V14.01,2013-06-14 00:41:00,
2013-06-13 20:46:00,57.5,55.8,29.56,ENE,57,3.0,6.0,94,0.03,,-RA,0.35,VWS V14.01,2013-06-14 00:46:00,
2013-06-13 20:51:00,57.4,55.7,29.56,ENE,68,3.0,6.0,94,0.03,,-RA,0.35,VWS V14.01,2013-06-14 00:51:00,
2013-06-13 20:56:00,57.3,55.6,29.56,North,9,1.0,6.0,94,0.03,,-RA,0.35,VWS V14.01,2013-06-14 00:56:00,
2013-06-13 21:01:00,57.1,55.4,29.56,SE,129,3.0,6.0,94,0.03,,-RA,0.35,VWS V14.01,2013-06-14 01:01:00,
2013-06-13 21:06:00,56.9,55.2,29.56,ENE,60,2.0,6.0,94,0.04,,-RA,0.36,VWS V14.01,2013-06-14 01:06:00,
2013-06-13 21:11:00,56.8,55.1,29.56,SE,136,2.0,6.0,94,0.04,,-RA,0.36,VWS V14.01,2013-06-14 01:11:00,
2013-06-13 21:16:00,56.7,55.0,29.55,ENE,63,2.0,6.0,94,0.04,,-RA,0.36,VWS V14.01,2013-06-14 01:16:00,
2013-06-13 21:21:00,56.6,54.9,29.55,East,84,1.0,9.0,94,0.04,,-RA,0.36,VWS V14.01,2013-06-14 01:21:00,
2013-06-13 21:26:00,56.5,54.8,29.55,SE,138,5.0,12.0,94,0.04,,-RA,0.36,VWS V14.01,2013-06-14 01:26:00,
2013-06-13 21:31:00,56.4,55.0,29.54,SE,136,4.0,4.0,95,0.02,,-RA,0.36,VWS V14.01,2013-06-14 01:31:00,
2013-06-13 21:36:00,56.4,55.0,29.55,ESE,117,2.0,9.0,95,0.02,,-RA,0.36,VWS V14.01,2013-06-14 01:36:00,
2013-06-13 21:41:00,56.3,54.9,29.55,SE,140,4.0,9.0,95,0.02,,-RA,0.36,VWS V14.01,2013-06-14 01:41:00,
2013-06-13 21:46:00,56.3,54.9,29.54,East,81,2.0,9.0,95,0.02,,-RA,0.36,VWS V14.01,2013-06-14 01:46:00,
2013-06-13 21:51:00,56.3,54.9,29.54,North,5,0.0,15.0,95,0.02,,-RA,0.36,VWS V14.01,2013-06-14 01:51:00,
2013-06-13 21:56:00,56.2,54.8,29.53,SE,143,7.0,15.0,95,0.03,,-RA,0.37,VWS V14.01,2013-06-14 01:56:00,
2013-06-13 22:01:00,56.2,54.8,29.53,SE,127,4.0,6.0,95,0.02,,-RA,0.37,VWS V14.01,2013-06-14 02:01:00,
2013-06-13 22:06:00,56.1,54.7,29.53,ESE,117,3.0,9.0,95,0.02,,-RA,0.37,VWS V14.01,2013-06-14 02:06:00,
2013-06-13 22:11:00,56.1,54.7,29.53,ESE,103,0.0,10.0,95,0.02,,-RA,0.37,VWS V14.01,2013-06-14 02:11:00,
2013-06-13 22:16:00,56.0,54.6,29.54,East,79,1.0,10.0,95,0.04,,-RA,0.39,VWS V14.01,2013-06-14 02:16:00,
2013-06-13 22:22:00,56.1,54.7,29.55,SE,125,1.0,10.0,95,0.05,,-RA,0.40,VWS V14.01,2013-06-14 02:22:00,
2013-06-13 22:27:00,56.1,55.0,29.54,East,92,1.0,10.0,96,0.07,,-RA,0.42,VWS V14.01,2013-06-14 02:27:00,
2013-06-13 22:32:00,56.1,55.0,29.53,ENE,57,1.0,6.0,96,0.09,,RA,0.45,VWS V14.01,2013-06-14 02:32:00,
2013-06-13 22:37:00,56.1,55.0,29.51,ENE,67,3.0,7.0,96,0.19,,RA,0.55,VWS V14.01,2013-06-14 02:37:00,
2013-06-13 22:42:00,56.2,55.1,29.51,ESE,113,2.0,7.0,96,0.24,,RA,0.60,VWS V14.01,2013-06-14 02:42:00,
2013-06-13 22:47:00,56.2,55.1,29.50,NW,323,3.0,7.0,96,0.26,, +RA,0.62,VWS V14.01,2013-06-14 02:47:00,
2013-06-13 22:52:00,56.2,55.1,29.51,SE,134,9.0,10.0,96,0.28,, +RA,0.64,VWS V14.01,2013-06-14 02:52:00,
2013-06-13 22:57:00,56.2,55.1,29.50,South,181,1.0,10.0,96,0.29,, +RA,0.65,VWS V14.01,2013-06-14 02:57:00,
2013-06-13 23:02:00,56.2,55.1,29.50,NE,50,2.0,2.0,96,0.29,, +RA,0.66,VWS V14.01,2013-06-14 03:02:00,
2013-06-13 23:07:00,56.2,55.1,29.50,SE,126,4.0,5.0,96,0.30,, +RA,0.67,VWS V14.01,2013-06-14 03:07:00,
2013-06-13 23:12:00,56.2,55.1,29.50,ESE,109,1.0,6.0,96,0.30,, +RA,0.67,VWS V14.01,2013-06-14 03:12:00,
2013-06-13 23:17:00,56.2,55.1,29.50,WNW,292,4.0,6.0,96,0.31,,RA,0.68,VWS V14.01,2013-06-14 03:17:00,
2013-06-13 23:22:00,56.2,55.1,29.50,ENE,61,1.0,6.0,96,0.31,,RA,0.68,VWS V14.01,2013-06-14 03:22:00,
2013-06-13 23:27:00,56.1,55.0,29.50,ENE,64,0.0,6.0,96,0.32,,RA,0.69,VWS V14.01,2013-06-14 03:27:00,
2013-06-13 23:32:00,56.1,55.0,29.49,ENE,70,0.0,0.0,96,0.24,,-RA,0.69,VWS V14.01,2013-06-14 03:32:00,
2013-06-13 23:37:00,55.9,54.8,29.49,ENE,76,0.0,3.0,96,0.24,,-RA,0.69,VWS V14.01,2013-06-14 03:37:00,
2013-06-13 23:42:00,55.9,54.8,29.49,NE,52,4.0,6.0,96,0.25,,-RA,0.70,VWS V14.01,2013-06-14 03:42:00,
2013-06-13 23:47:00,55.7,54.6,29.49,NW,313,9.0,10.0,96,0.25,,-RA,0.70,VWS V14.01,2013-06-14 03:47:00,
2013-06-13 23:52:00,55.6,54.5,29.49,East,86,3.0,10.0,96,0.25,,-RA,0.70,VWS V14.01,2013-06-14 03:52:00,
2013-06-13 23:57:00,55.5,54.4,29.49,ENE,71,1.0,10.0,96,0.25,,-RA,0.70,VWS V14.01,2013-06-14 03:57:00,